Regional Weather Roundup
Issued by NWS Cleveland, OH

Home | Current Version | Previous Version | Graphics & Text | Print | Product List | Glossary On
Versions: 1 2 3 4 5 6 7 8 9 10 11 12 13 14 15 16 17 18 19 20 21 22 23 24 25 26 27 28 29 30 31 32 33 34 35 36 37 38 39 40 41 42 43 44 45 46 47 48 49 50
000
ASUS41 KCLE 261612
RWRCLE
OHIO REGIONAL WEATHER ROUNDUP
NATIONAL WEATHER SERVICE WILMINGTON, OH
1200 PM EDT TUE JUL 26 2016

NOTE: "FAIR" INDICATES FEW OR NO CLOUDS BELOW 12,000 FEET WITH NO
SIGNIFICANT WEATHER AND/OR OBSTRUCTIONS TO VISIBILITY.

OHZ001>008-015>018-024>027-034-035-043-044-261700-
   NORTHWEST OHIO

CITY           SKY/WX    TMP DP  RH WIND       PRES   REMARKS
DEFIANCE       FAIR      83  63  50 MISG      30.08S
FINDLAY        FAIR      82  61  48 E8        30.06S
TOLEDO EXPRESS FAIR      82  63  52 NE5       30.07R
TOLEDO EXEC    FAIR      82  61  48 E7        30.08R
LIMA           FAIR      83  65  54 E5        30.07S
$$

OHZ009>014-019>023-028>033-038-089-261700-
   NORTHEAST OHIO

CITY           SKY/WX    TMP DP  RH WIND       PRES   REMARKS
CLE-HOPKINS    FAIR      83  58  42 VRB6      30.09R
CLE-LAKEFRONT  FAIR      79  62  56 N9        30.06R
CUY CO. ARPT   MOSUNNY   84  63  48 N8        30.08R
LORAIN-ELYRIA  FAIR      81  60  48 VRB5      30.08R
ASHTABULA      FAIR      76  61  59 N5        30.08S
AKRON-CANTON   FAIR      81  63  54 E5        30.08R
WOOSTER        FAIR      83  64  52 VRB7      30.09R
MANSFIELD      FAIR      82  64  54 NE6       30.09R
YOUNGSTOWN     PTSUNNY   80  59  48 VRB6      30.07S
$$

OHZ042-051>053-060>062-070>072-077>081-261700-
  SOUTHWEST OHIO

CITY           SKY/WX    TMP DP  RH WIND       PRES   REMARKS
CINC-COVINGTON PTSUNNY   86  73  65 N6        30.05S HX  93
CINC-LUNKEN    PTSUNNY   83  74  74 VRB3      30.04R
HAMILTON       LGT RAIN  76  72  87 NW5       30.07R
DAYTON         PTSUNNY   83  67  58 N3        30.08S
WRIGHT-PAT AFB FAIR      83  69  62 VRB2      30.06R
DAYTON GENERAL FAIR      82  66  58 CALM      30.06R
WILMINGTON     CLOUDY    81  71  71 SE3       30.06S
$$

OHZ036-037-039>041-045>050-054>059-063>069-073>076-082>088-261700-
  CENTRAL AND SOUTHEAST OHIO

CITY           SKY/WX    TMP DP  RH WIND       PRES   REMARKS
COLUMBUS       PTSUNNY   84  67  56 VRB3      30.04F
OSU AIRPORT    FAIR      85  68  56 SE5       30.05S
BOLTON FIELD   MOSUNNY   84  70  61 CALM      30.06S
RICKENBACK AFB FAIR      83  69  63 SE3       30.04F
NEWARK         FAIR      86  67  52 N3        30.05S
MARION         FAIR      83  64  52 VRB3      30.07S
LANCASTER      FAIR      83  72  69 E3        30.06R
ZANESVILLE     FAIR      87  67  51 CALM      30.05R HX  90
NEW PHILLY     FAIR      87  62  43 W5        30.06R
$$




USA.gov is the U.S. government's official web portal to all federal, state and local government web resources and services.